Location: Recife
(8.0585°S, 34.8848°W)
Time: 10:35:47
(UTC-03:00)

Altair - Pass Details

Date: 21 April 2026
Orbit: 1501 x 1682 km, 47.2° (Epoch: 20 May)

Event Time Altitude Azimuth Distance (km) Brightness Sun altitude
Rises 22:28:37 0° 271° (W) 4,637 - -77.1°
Reaches altitude 10° 22:33:42 10° 248° (WSW) 3,652 - -78.3°
Maximum altitude 22:38:07 14° 218° (SW) 3,329 - -79.3°
Drops below altitude 10° 22:42:35 10° 189° (S) 3,669 - -80.3°
Sets 22:47:47 0° 165° (SSE) 4,675 - -81.5°
